Temp
2 2 2 2 2 1 1 2 0 4 2 2 1 1 0 0 0 0 -0 -0 -1 -1 -2 -2 -2 -2 -1 -1 -1 -1 -1 -2 -2 -2 -2 -3 -3 -3 -4 -4 -4 -4 -3 -3
1 1 0 0 2 1 1 1 -0 1 1 1 -0 -1 -1 -1 -1 -2 -3 -3 -3 -3 -3 -3 -2 -2 -2 -2 -2 -2 -2 -2 -3 -3 -3 -2 -3 -3 -3 -3 -4 -4 -4 -4
-1 -1 -2 -3 3 3 2 2 1 0 1 -1 -1 -2 -3 -3 -4 -4 -4 -4 -4 -3 -3 -3 -3 -3 -2 -2 -2 -2 -2 -3 -3 -3 -3 -3 -3 -4 -4 -5 -5 -5 -5 -6
-2 -2 -6 1 1 1 1 1 1 -0 -1 -1 -3 -3 -4 -4 -5 -5 -5 -4 -4 -4 -4 -4 -4 -4 -4 -4 -4 -4 -4 -4 -4 -4 -5 -4 -4 -5 -5 -6 -6 -6 -6 -6
-3 -3 -1 -0 0 0 -0 -0 -1 -1 -2 -2 -3 -4 -4 -5 -5 -5 -6 -5 -5 -5 -5 -5 -5 -5 -5 -5 -5 -5 -5 -5 -5 -6 -6 -6 -6 -6 -6 -7 -7 -7 -7 -7
-5 -4 -6 -1 -2 -1 -1 -2 -1 -2 -3 -4 -5 -5 -5 -6 -6 -6 -6 -6 -6 -6 -6 -6 -6 -6 -7 -7 -7 -7 -7 -7 -7 -7 -7 -8 -8 -9 -9 -9 -8 -8 -8 -8
-4 -5 -3 -2 -3 -3 -4 -3 -3 -3 -4 -5 -6 -6 -7 -7 -7 -7 -7 -7 -7 -8 -8 -8 -8 -8 -8 -8 -8 -8 -8 -8 -9 -9 -9 -9 -9 -9 -10 -10 -10 -10 -10 -10
-5 -6 -5 -3 -4 -5 -4 -5 -5 -5 -6 -6 -7 -7 -7 -7 -7 -8 -8 -8 -8 -9 -9 -9 -9 -9 -9 -10 -10 -10 -10 -10 -10 -11 -11 -11 -11 -11 -12 -12 -12 -12 -12 -12
-5 -5 -4 -5 -5 -5 -5 -6 -7 -7 -7 -7 -7 -8 -8 -8 -9 -9 -10 -10 -10 -10 -11 -11 -11 -11 -11 -11 -11 -11 -11 -12 -12 -12 -12 -13 -13 -13 -13 -13 -14 -14 -14 -14
-6 -5 -5 -6 -6 -6 -7 -7 -7 -8 -8 -8 -8 -9 -9 -10 -11 -11 -11 -11 -11 -11 -12 -12 -12 -12 -12 -12 -13 -13 -13 -13 -13 -13 -13 -14 -14 -14 -14 -14 -15 -15 -15 -15
-7 -7 -6 -6 -7 -8 -9 -9 -9 -9 -9 -9 -10 -11 -12 -12 -12 -12 -12 -12 -12 -12 -12 -12 -12 -12 -13 -13 -14 -13 -13 -13 -13 -14 -14 -14 -14 -15 -15 -15 -15 -15 -15 -15
-7 -7 -7 -8 -9 -9 -9 -9 -10 -10 -10 -11 -12 -13 -13 -13 -13 -13 -13 -13 -13 -13 -13 -13 -13 -13 -14 -14 -14 -14 -14 -14 -14 -14 -14 -15 -15 -15 -15 -15 -15 -16 -16 -16
-9 -9 -9 -10 -10 -10 -10 -10 -11 -11 -12 -13 -14 -13 -13 -13 -13 -13 -13 -13 -13 -13 -13 -13 -14 -14 -14 -14 -14 -14 -15 -15 -15 -15 -15 -16 -16 -16 -15 -15 -16 -16 -16 -17
-10 -10 -10 -11 -11 -12 -12 -12 -13 -13 -14 -14 -14 -14 -14 -14 -14 -14 -14 -14 -13 -13 -14 -14 -14 -14 -15 -15 -15 -15 -15 -16 -16 -16 -16 -17 -17 -17 -17 -17 -16 -16 -16 -17
-11 -12 -12 -12 -13 -13 -13 -13 -14 -14 -14 -14 -14 -14 -14 -14 -14 -14 -14 -14 -14 -14 -14 -15 -15 -15 -15 -15 -16 -16 -16 -16 -16 -16 -17 -18 -18 -18 -18 -18 -18 -17 -17 -17
-13 -14 -14 -14 -14 -14 -14 -14 -14 -14 -14 -14 -14 -14 -14 -14 -14 -14 -14 -15 -15 -15 -15 -15 -15 -16 -16 -16 -16 -16 -17 -17 -17 -17 -17 -18 -18 -18 -18 -18 -18 -18 -18 -17
-14 -15 -15 -15 -14 -14 -14 -14 -14 -14 -14 -14 -14 -14 -14 -14 -14 -15 -15 -15 -15 -15 -15 -16 -16 -16 -16 -16 -17 -17 -17 -17 -18 -18 -18 -18 -18 -18 -18 -18 -18 -18 -18 -18
-15 -15 -15 -15 -14 -14 -14 -15 -15 -15 -15 -15 -15 -15 -15 -15 -15 -15 -15 -15 -16 -16 -16 -16 -16 -16 -16 -17 -17 -17 -17 -18 -18 -18 -18 -18 -18 -18 -18 -18 -18 -18 -18 -18
-15 -15 -15 -15 -15 -15 -15 -15 -15 -15 -15 -15 -15 -15 -16 -16 -16 -16 -16 -16 -16 -16 -16 -16 -16 -17 -17 -17 -17 -17 -18 -18 -18 -18 -18 -19 -19 -19 -19 -19 -19 -19 -19 -19
-16 -16 -16 -15 -15 -15 -15 -15 -15 -15 -16 -16 -16 -16 -16 -16 -16 -16 -16 -16 -17 -17 -16 -16 -17 -17 -17 -17 -18 -18 -18 -18 -18 -18 -19 -19 -19 -19 -19 -19 -19 -19 -19 -19
-15 -15 -15 -15 -15 -16 -16 -16 -16 -16 -16 -16 -16 -16 -16 -16 -16 -16 -16 -16 -17 -17 -17 -17 -17 -17 -18 -18 -18 -18 -18 -18 -18 -18 -18 -18 -18 -19 -19 -19 -19 -19 -19 -19
-16 -16 -16 -16 -16 -16 -16 -16 -16 -17 -17 -17 -17 -17 -16 -16 -16 -16 -17 -16 -16 -17 -17 -17 -17 -18 -18 -18 -18 -18 -17 -17 -17 -17 -17 -17 -18 -18 -18 -19 -19 -19 -19 -19
-17 -16 -16 -16 -16 -16 -17 -17 -17 -17 -17 -17 -17 -17 -16 -16 -16 -16 -16 -17 -16 -16 -17 -17 -17 -17 -17 -17 -17 -17 -17 -17 -17 -17 -17 -17 -18 -18 -18 -18 -18 -18 -18 -18
-17 -16 -16 -16 -17 -17 -17 -17 -17 -17 -17 -17 -17 -17 -17 -16 -16 -17 -16 -16 -16 -17 -17 -17 -17 -17 -17 -16 -16 -16 -16 -16 -17 -17 -17 -17 -17 -18 -18 -18 -18 -18 -17 -17
-17 -17 -17 -17 -17 -17 -17 -17 -17 -17 -17 -17 -17 -17 -17 -17 -16 -16 -16 -16 -16 -16 -16 -16 -16 -16 -16 -16 -16 -16 -16 -16 -17 -16 -17 -17 -17 -17 -17 -17 -17 -17 -17 -17
-17 -17 -17 -17 -17 -17 -17 -17 -17 -17 -17 -17 -18 -17 -17 -17 -17 -17 -16 -16 -16 -16 -16 -16 -16 -16 -16 -16 -16 -16 -16 -17 -17 -17 -17 -17 -17 -17 -17 -17 -17 -17 -17 -17
-18 -18 -18 -18 -18 -18 -18 -18 -17 -18 -18 -18 -18 -17 -17 -17 -17 -16 -16 -16 -16 -16 -16 -16 -16 -17 -17 -17 -16 -17 -17 -17 -17 -17 -17 -17 -17 -18 -18 -18 -18 -18 -18 -18
Height
3080 3081 3081 3081 3080 3080 3077 3076 3075 3069 3069 3074 3073 3072 3071 3069 3068 3067 3065 3064 3063 3062 3062 3061 3060 3059 3057 3056 3055 3054 3053 3052 3051 3050 3048 3046 3044 3042 3040 3039 3038 3036 3035 3033
3072 3075 3073 3071 3070 3068 3068 3066 3061 3062 3060 3064 3062 3060 3060 3061 3060 3058 3058 3057 3057 3057 3056 3055 3054 3053 3052 3051 3050 3049 3047 3046 3044 3042 3040 3038 3036 3034 3031 3029 3027 3025 3023 3021
3066 3065 3064 3062 3057 3057 3056 3056 3055 3052 3054 3053 3050 3050 3050 3051 3051 3051 3052 3052 3052 3051 3050 3050 3049 3048 3046 3045 3043 3041 3039 3038 3035 3033 3030 3028 3026 3023 3020 3018 3016 3013 3010 3008
3060 3060 3056 3045 3046 3047 3046 3046 3046 3043 3043 3043 3043 3044 3044 3045 3046 3046 3046 3046 3045 3044 3043 3042 3040 3039 3037 3035 3033 3031 3029 3027 3025 3022 3020 3017 3014 3011 3008 3005 3002 3000 2998 2995
3055 3051 3040 3043 3042 3042 3041 3038 3040 3038 3037 3037 3038 3039 3040 3041 3040 3040 3040 3039 3038 3037 3036 3034 3032 3029 3027 3025 3022 3020 3017 3015 3012 3010 3007 3004 3002 2999 2996 2993 2990 2987 2984 2981
3047 3045 3037 3032 3034 3035 3035 3031 3033 3031 3031 3032 3033 3035 3036 3036 3035 3035 3033 3032 3030 3028 3026 3024 3022 3019 3017 3014 3012 3009 3006 3004 3001 2997 2994 2991 2987 2985 2982 2979 2976 2972 2968 2965
3038 3035 3026 3027 3028 3027 3029 3029 3027 3027 3028 3028 3030 3031 3030 3029 3029 3028 3026 3024 3022 3020 3018 3015 3012 3010 3007 3004 3002 2999 2996 2993 2989 2985 2982 2978 2974 2970 2967 2963 2960 2957 2953 2950
3030 3030 3024 3021 3021 3024 3022 3020 3022 3023 3024 3024 3024 3025 3024 3022 3020 3018 3017 3015 3014 3012 3009 3005 3002 3000 2998 2995 2991 2988 2985 2982 2978 2974 2970 2966 2962 2958 2954 2950 2946 2943 2939 2937
3021 3016 3015 3015 3015 3016 3016 3016 3017 3018 3019 3017 3016 3015 3015 3014 3013 3011 3010 3008 3006 3004 3003 3000 2995 2991 2989 2986 2982 2978 2974 2970 2966 2962 2959 2955 2950 2946 2942 2939 2935 2931 2927 2923
3010 3009 3009 3008 3008 3009 3009 3009 3009 3009 3009 3009 3008 3007 3006 3005 3004 3004 3003 3001 2999 2997 2994 2992 2989 2985 2981 2976 2970 2965 2961 2957 2954 2949 2946 2942 2938 2934 2930 2927 2923 2919 2915 2912
3001 3002 3003 3002 3001 3001 3001 3002 3002 3001 3001 3000 3000 3000 3000 3000 2999 2997 2996 2994 2991 2989 2985 2982 2978 2975 2970 2965 2959 2954 2949 2945 2941 2937 2933 2930 2926 2922 2918 2916 2911 2907 2904 2900
2994 2995 2996 2995 2995 2995 2995 2995 2995 2996 2995 2995 2995 2994 2994 2994 2993 2991 2989 2986 2983 2980 2975 2971 2966 2962 2957 2952 2947 2942 2937 2933 2929 2925 2921 2917 2913 2910 2909 2904 2901 2897 2894 2889
2986 2987 2988 2989 2990 2990 2990 2990 2990 2990 2990 2990 2990 2990 2989 2987 2986 2984 2981 2977 2973 2969 2964 2959 2955 2951 2946 2940 2935 2930 2923 2919 2914 2911 2907 2904 2901 2897 2894 2895 2890 2888 2884 2881
2981 2982 2983 2984 2985 2986 2986 2986 2986 2986 2986 2986 2985 2984 2981 2979 2978 2975 2971 2967 2962 2957 2952 2947 2942 2939 2934 2927 2922 2917 2911 2907 2901 2898 2894 2891 2889 2886 2883 2880 2877 2875 2874 2870
2979 2979 2981 2981 2982 2982 2983 2983 2982 2982 2982 2981 2979 2976 2974 2971 2968 2965 2960 2954 2949 2944 2940 2936 2930 2926 2919 2915 2909 2905 2900 2895 2891 2886 2882 2879 2877 2874 2872 2869 2866 2863 2861 2859
2975 2976 2977 2979 2980 2980 2980 2979 2978 2977 2976 2974 2971 2968 2964 2960 2956 2952 2947 2941 2936 2931 2928 2923 2918 2912 2907 2903 2898 2893 2889 2885 2880 2874 2871 2868 2866 2863 2861 2858 2855 2853 2849 2847
2974 2975 2976 2976 2977 2976 2974 2973 2971 2969 2967 2964 2960 2956 2952 2947 2943 2939 2934 2930 2924 2919 2915 2909 2904 2899 2895 2891 2886 2883 2879 2875 2871 2866 2861 2858 2856 2853 2850 2847 2844 2841 2839 2837
2972 2972 2972 2971 2971 2969 2968 2965 2962 2959 2955 2951 2947 2943 2938 2933 2928 2924 2919 2915 2911 2907 2903 2897 2893 2888 2885 2881 2877 2873 2869 2865 2861 2857 2853 2850 2847 2844 2841 2838 2835 2832 2830 2828
2970 2968 2967 2965 2962 2960 2956 2953 2949 2946 2943 2939 2934 2930 2925 2921 2916 2911 2907 2903 2900 2895 2892 2888 2884 2880 2876 2872 2868 2864 2860 2856 2852 2849 2846 2842 2840 2837 2834 2831 2828 2826 2823 2821
2964 2962 2959 2956 2954 2950 2947 2944 2940 2936 2933 2928 2923 2919 2915 2911 2906 2902 2898 2894 2891 2886 2882 2879 2875 2871 2867 2863 2859 2856 2852 2848 2845 2842 2838 2835 2832 2829 2826 2824 2821 2818 2815 2814
2956 2954 2951 2948 2945 2942 2938 2934 2930 2926 2923 2919 2913 2910 2905 2902 2898 2893 2890 2886 2884 2879 2875 2871 2866 2862 2859 2855 2852 2849 2845 2842 2839 2835 2832 2828 2825 2822 2819 2815 2812 2811 2810 2808
2950 2946 2943 2939 2936 2933 2929 2925 2921 2917 2914 2910 2906 2901 2897 2894 2890 2888 2885 2879 2876 2872 2868 2864 2860 2856 2852 2848 2846 2843 2840 2837 2833 2830 2827 2824 2820 2817 2814 2810 2808 2806 2805 2803
2943 2939 2935 2931 2927 2924 2921 2917 2913 2909 2905 2901 2897 2893 2890 2887 2883 2879 2878 2876 2871 2867 2863 2858 2855 2851 2847 2845 2842 2839 2836 2833 2830 2827 2824 2821 2817 2814 2810 2807 2804 2802 2799 2797
2935 2931 2927 2923 2919 2916 2913 2910 2906 2902 2898 2894 2890 2886 2882 2881 2881 2875 2872 2869 2866 2862 2858 2854 2851 2848 2845 2842 2839 2837 2834 2831 2828 2825 2821 2818 2814 2811 2807 2804 2801 2798 2795 2793
2926 2922 2918 2915 2912 2909 2905 2902 2899 2895 2892 2888 2884 2881 2878 2875 2873 2871 2869 2866 2863 2860 2856 2853 2849 2846 2843 2841 2838 2836 2833 2829 2826 2823 2819 2815 2812 2808 2805 2801 2798 2796 2793 2791
2918 2914 2911 2907 2904 2901 2898 2895 2892 2888 2885 2882 2879 2875 2873 2871 2869 2867 2865 2863 2860 2857 2854 2851 2848 2845 2842 2840 2837 2834 2831 2828 2824 2821 2817 2814 2810 2806 2803 2800 2797 2794 2792 2790
2911 2907 2905 2902 2899 2896 2893 2889 2886 2883 2879 2876 2874 2872 2870 2868 2866 2864 2862 2860 2858 2855 2852 2849 2846 2843 2841 2838 2835 2832 2829 2826 2823 2820 2816 2813 2809 2805 2802 2799 2796 2793 2791 2789
Wind_Speed
14 16 19 20 23 25 29 32 32 41 39 37 32 33 35 35 37 39 41 35 24 20 19 17 15 16 16 16 18 17 18 22 27 30 32 34 35 34 34 35 37 39 40 42
23 21 25 27 27 30 34 37 43 42 42 37 42 41 39 41 41 32 23 19 19 18 18 18 18 18 18 19 21 22 22 22 24 26 29 31 33 34 36 38 41 43 45 46
15 16 14 17 30 22 24 25 25 32 30 24 26 27 29 27 22 20 19 19 20 21 22 23 24 26 27 29 30 30 31 32 32 33 35 37 38 40 41 42 45 47 49 50
13 17 5 14 13 14 18 23 28 27 24 18 18 20 21 19 20 21 21 21 22 24 26 27 29 31 32 32 32 33 34 36 37 36 37 39 41 43 42 43 45 47 50 52
8 13 25 28 29 29 29 29 25 26 22 17 16 18 19 19 20 21 21 23 26 28 31 34 35 34 34 35 36 36 37 38 39 40 39 40 42 44 46 47 48 50 53 54
14 8 7 12 8 12 19 20 19 19 19 18 18 19 19 18 19 22 26 28 30 31 30 31 31 31 31 32 33 34 35 36 37 40 42 43 45 46 49 51 53 56 56 59
35 19 20 21 20 19 13 17 14 16 19 19 21 20 20 22 24 27 29 29 28 25 27 28 28 29 29 31 32 33 34 35 37 38 40 41 42 41 41 41 41 41 42 42
26 16 15 23 19 21 19 15 14 15 19 21 19 22 27 30 31 29 27 25 25 25 25 27 28 29 30 32 35 36 38 38 39 40 41 42 43 43 43 43 43 42 40 39
20 13 15 11 12 14 15 15 11 14 18 24 30 29 24 24 25 22 20 22 23 22 23 24 28 33 35 36 39 41 42 43 44 45 45 45 45 45 45 43 42 42 41 40
27 30 30 29 30 26 18 19 27 30 28 29 25 19 20 17 17 20 19 20 23 26 28 30 32 36 39 42 44 46 47 47 47 46 45 43 42 41 40 39 39 39 39 40
23 27 22 19 16 21 29 26 25 25 24 20 17 14 13 15 15 17 20 24 28 31 34 37 40 42 44 44 44 43 43 42 42 42 41 40 39 39 39 37 37 38 38 38
25 21 22 23 24 23 21 17 20 18 17 15 13 13 14 15 19 24 27 30 33 36 39 43 45 44 40 38 40 43 46 47 47 46 44 42 39 36 34 35 34 35 35 36
18 18 12 18 23 19 22 16 16 13 11 12 13 15 18 23 25 28 32 35 38 42 46 46 42 39 40 43 46 48 50 49 49 47 45 41 38 37 37 35 35 33 33 33
9 12 14 12 9 8 9 10 11 11 13 15 18 21 25 28 30 35 37 41 45 46 46 42 41 41 45 48 48 46 45 43 43 43 42 41 38 38 38 37 38 37 34 34
6 4 5 4 5 7 9 12 14 17 20 23 26 30 32 35 37 40 43 45 45 44 42 42 45 46 46 45 42 41 40 40 39 39 37 37 36 36 36 36 36 37 37 35
4 1 2 5 8 12 15 18 21 23 26 28 31 33 37 40 43 44 44 42 43 44 44 46 46 43 41 39 39 38 38 37 37 38 36 33 33 35 36 37 38 38 37 34
3 5 6 9 11 15 19 23 26 28 30 33 36 38 41 42 42 42 42 44 45 45 43 42 41 39 38 37 35 36 36 35 34 34 33 32 33 34 36 37 36 34 31 30
11 13 16 18 21 21 23 25 29 32 34 36 39 40 42 43 44 43 42 42 40 38 36 36 34 34 32 32 34 35 35 35 33 31 29 29 29 29 29 28 27 26 26 25
15 17 20 22 25 28 30 31 34 36 38 40 42 42 40 39 38 38 37 37 34 34 31 29 29 30 31 31 32 32 31 31 29 28 27 27 27 25 21 21 23 24 27 25
20 22 24 26 29 31 34 35 38 39 39 39 38 36 36 35 34 33 32 31 28 29 30 29 30 30 30 28 28 28 28 28 28 28 27 27 27 21 24 25 28 28 20 19
26 27 29 31 33 34 34 35 36 35 34 33 34 33 33 32 30 30 28 28 26 27 27 28 29 28 26 24 23 22 23 25 25 24 24 24 24 24 24 26 23 19 18 19
28 28 30 32 32 31 30 32 32 31 30 29 29 30 31 28 28 26 24 27 24 25 26 26 26 24 22 20 19 19 20 18 18 18 19 20 20 19 18 18 16 15 18 21
26 30 31 30 30 29 27 27 27 28 27 28 29 29 28 26 25 25 20 19 22 23 24 22 20 18 16 16 16 16 16 16 16 17 18 18 19 19 19 18 17 18 18 18
29 31 30 29 27 27 26 25 24 25 26 26 26 26 26 22 17 20 21 20 21 21 20 19 17 16 15 14 14 14 14 15 17 18 18 18 18 17 17 17 16 15 15 15
30 29 28 26 24 25 24 23 23 24 23 22 21 21 19 19 19 16 16 15 16 17 16 15 14 14 14 13 13 14 16 17 18 17 17 17 18 17 17 16 16 14 13 12
26 25 23 22 23 23 23 24 23 22 21 18 16 16 14 15 15 15 14 14 15 15 15 14 13 13 13 13 15 16 16 15 15 16 16 16 17 17 16 15 14 13 12 11
22 21 19 18 20 21 22 23 22 20 20 18 13 11 10 10 12 11 12 13 13 13 13 14 14 12 12 14 16 16 15 15 15 15 15 16 17 17 16 14 13 11 9 9
Wind_Direction
253 260 265 266 269 267 258 268 252 283 277 281 274 272 271 271 276 282 287 288 286 276 269 265 269 278 284 290 289 285 284 284 280 279 279 279 277 273 270 267 267 268 272 277
275 273 274 272 274 269 271 271 269 274 277 281 275 270 268 272 277 278 277 264 252 253 257 262 266 272 280 288 292 294 291 289 287 287 287 288 283 278 273 268 266 267 270 273
269 274 265 267 287 277 269 271 275 272 294 281 273 268 269 271 269 260 250 253 258 262 265 270 274 279 282 282 283 285 287 289 290 289 287 280 276 273 271 271 271 270 270 272
267 284 230 279 268 270 275 282 283 286 288 281 267 265 260 258 255 257 261 267 272 277 282 286 290 294 295 296 295 292 291 291 291 288 285 280 275 273 271 271 272 273 275 276
252 238 273 275 272 272 278 281 281 275 272 268 256 250 251 254 259 266 273 281 286 290 293 296 298 298 298 298 298 299 299 297 295 291 284 278 275 274 274 275 275 275 275 277
230 244 237 285 259 266 270 268 271 266 259 255 251 240 250 257 267 277 281 287 294 298 301 302 301 301 299 299 299 298 297 295 291 288 286 284 282 278 278 278 275 275 276 278
242 247 269 270 270 258 242 271 266 258 251 245 241 252 259 265 276 286 296 302 303 301 300 299 299 300 301 301 299 297 295 293 291 290 290 291 291 292 292 292 290 290 289 289
233 237 268 260 254 244 262 268 268 245 244 247 258 278 283 291 298 302 302 297 295 296 298 302 302 301 300 299 299 297 297 296 295 296 297 298 299 299 300 300 300 300 300 300
227 232 242 254 245 251 262 268 254 277 281 284 302 302 290 292 295 289 287 291 293 294 295 300 301 302 302 302 300 298 296 296 297 297 298 299 299 299 299 301 301 300 298 297
237 246 247 255 264 269 250 269 294 302 300 293 284 281 295 287 285 291 293 292 295 298 299 300 301 303 303 301 299 298 298 298 298 299 300 300 300 300 299 298 296 295 295 294
265 268 259 255 268 293 303 304 304 293 276 266 281 282 275 279 283 288 295 298 300 301 303 306 306 304 301 300 300 300 300 301 302 302 303 302 301 299 296 296 296 296 296 295
248 249 256 273 290 292 289 290 295 280 281 283 277 281 285 286 291 295 299 302 303 304 306 309 306 303 302 303 303 302 300 300 299 298 298 299 298 295 293 295 294 295 296 297
262 265 254 288 287 271 285 282 276 277 280 287 289 287 289 294 297 300 301 301 303 306 305 305 304 302 302 302 301 301 300 299 299 297 296 295 294 293 293 289 293 294 295 295
273 297 283 260 267 283 290 294 297 298 294 287 284 287 289 292 295 300 302 302 301 301 302 302 301 301 302 301 301 301 301 302 300 298 294 291 290 290 292 294 295 296 297 298
250 229 272 318 329 321 312 302 293 290 288 288 290 291 291 292 295 298 299 299 300 301 301 302 302 302 301 302 301 302 303 304 303 300 295 290 288 287 288 289 292 295 297 299
167 8 313 286 289 291 293 293 292 291 291 291 292 292 293 293 296 299 300 300 300 300 302 301 301 300 300 301 301 302 304 307 307 303 300 296 293 291 291 291 293 296 297 299
225 243 262 279 286 290 292 293 293 294 294 294 295 295 295 297 299 300 300 300 299 301 303 302 301 301 300 302 301 302 304 308 307 307 299 296 293 292 293 294 295 296 297 300
330 321 317 308 301 296 293 294 297 300 302 304 303 304 304 304 303 303 302 301 303 305 305 304 304 303 302 302 301 304 306 308 308 309 307 300 299 301 302 300 300 300 302 303
309 305 304 303 305 307 308 309 308 308 308 306 306 306 306 306 306 306 305 306 308 306 307 307 306 305 304 305 305 305 307 307 308 308 308 309 310 310 310 306 298 294 302 300
318 315 313 311 310 308 307 306 306 306 306 306 306 307 307 308 310 309 309 311 313 311 311 311 310 310 311 310 307 305 305 306 308 310 309 309 308 295 296 290 300 302 300 291
316 314 311 309 308 307 306 305 304 305 306 307 308 310 309 312 313 313 315 313 315 313 313 316 316 316 314 312 309 312 314 313 312 312 313 314 314 311 307 302 299 290 290 294
310 311 314 311 308 307 307 306 306 306 307 308 308 310 310 312 311 313 316 315 320 320 321 323 322 322 321 321 320 321 324 327 331 332 331 329 328 326 325 323 323 310 299 301
306 311 313 311 309 309 309 308 309 309 310 310 310 309 310 314 316 317 323 321 323 325 328 330 332 334 333 334 336 338 339 340 340 338 336 334 332 329 328 326 321 316 313 311
309 311 311 310 308 308 313 313 311 310 311 312 312 310 310 311 318 315 323 329 333 334 334 339 342 341 341 342 343 345 345 343 340 339 339 336 334 334 333 333 334 331 328 325
310 311 311 310 309 310 313 316 317 317 316 313 309 305 306 312 321 327 328 330 336 342 345 345 346 347 348 349 352 352 347 343 343 346 346 345 343 341 340 340 341 343 346 346
312 312 313 313 315 318 321 323 323 321 319 320 318 313 314 317 320 325 329 332 337 342 346 349 348 346 346 350 349 347 346 348 349 347 347 348 348 347 346 344 343 344 347 349
318 315 316 316 317 320 322 323 326 327 324 324 328 318 317 319 324 330 334 337 337 339 345 346 344 344 347 346 346 348 350 352 354 358 1 3 3 2 1 360 357 356 358 1